Hourly Weather Roundup
Issued by NWS Central Illinois

Home | Current Version | Previous Version | Text Only | Print | Product List | Glossary On
Versions: 1 2 3 4 5 6 7 8 9 10 11 12 13 14 15 16 17 18 19 20 21 22 23 24 25 26 27 28 29 30 31 32 33 34 35 36 37 38 39 40 41 42 43 44 45 46 47 48 49 50
212
NZUS43 KILX 201710
HWRILX

Area Weather Roundup
National Weather Service Lincoln IL
1100 AM CST MON NOV 20 2017

NOTE:  "FAIR" indicates few or no clouds below 12,000 feet, with
       no sigificant weather and/or obstructions to visibility.


CITY           SKY/WX    TMP DP  RH WIND       PRES   REMARKS
Bloomington    CLOUDY    46  31  55 SW25G31   29.95F
Champaign      SUNNY     45  31  58 S25G32    30.02F
Danville       SUNNY     43  29  59 S17G26    30.01F WCI  35
Decatur        SUNNY     48  29  47 SW20G28   30.03F
Effingham      SUNNY     48  30  50 S12       30.12F
Flora          SUNNY     47  32  55 S13       30.14F
Galesburg      SUNNY     52  34  51 S18G31    29.87F
Jacksonville   SUNNY     51  30  44 SW17G24   29.98F
Lacon          SUNNY     45  29  52 SW13G22   29.88F
Lawrenceville  SUNNY     45  31  58 S16       30.16F
Litchfield     SUNNY     46  32  56 S16       30.04F
$$


CITY           SKY/WX    TMP DP  RH WIND       PRES   REMARKS
Lincoln        SUNNY     48  32  53 S16       29.98F
Macomb         SUNNY     51  33  49 SW24G30   29.91F
Mattoon        SUNNY     44  30  57 S14G20    30.07F
Mt Carmel AP   SUNNY     45  28  51 S16       30.16F
Olney-Noble AP SUNNY     44  26  47 S13       30.15F
Paris AP       SUNNY     44  31  61 S16G25    30.08F
Peoria         CLOUDY    50  30  46 SW18G31   29.92F
Pontiac        SUNNY     47  32  56 SW18G25   29.94F
Rantoul        CLOUDY    47  33  57 SW20G26   30.01F
Robinson       SUNNY     45  27  50 S13       30.15F
Springfield    SUNNY     51  31  46 S21G28    30.00F
Taylorville    SUNNY     47  31  54 S20G29    30.03F
$$

...REGIONAL REPORTS...


CITY           SKY/WX    TMP DP  RH WIND       PRES   REMARKS
Chicago O`Hare MOSUNNY   45  28  51 SW22G29   29.87F
Kankakee       SUNNY     44  29  56 SW20G28   29.96F
Moline         SUNNY     52  31  44 SW14G24   29.82F
Mount Sterling SUNNY     53  30  41 S20G29    29.93F
Mount Vernon   SUNNY     47  31  53 S16       30.14F
Pittsfield     SUNNY     53  32  45 SW15G25   29.97F
Quincy         SUNNY     52  31  44 S21G28    29.93F
Rockford       PTSUNNY   45  30  55 SW16      29.85F
$$


CITY           SKY/WX    TMP DP  RH WIND       PRES   REMARKS
Burlington     SUNNY     51  34  52 S24G32    29.85F
Cedar Rapids   SUNNY     51  31  46 S21       29.75F
Des Moines     PTSUNNY   53  27  36 SW20G29   29.72F
Kirksville     SUNNY     56  32  40 SW18G31   29.88F
Ottumwa        SUNNY     55  29  36 SW20G31   29.79F
St Louis       MOSUNNY   56  26  31 SW13      30.05F
$$


CITY           SKY/WX    TMP DP  RH WIND       PRES   REMARKS
Terre Haute    SUNNY     45  26  47 S17       30.11F
Evansville     SUNNY     45  27  49 S9        30.20F
Indianapolis   MOSUNNY   44  24  45 S17       30.12F
Lafayette      CLOUDY    44  28  53 SW15G23   30.04F
Madison        PTSUNNY   43  29  57 S13       29.75F
Milwaukee      PTSUNNY   46  29  51 SW15      29.81F
$$






USA.gov is the U.S. government's official web portal to all federal, state and local government web resources and services.